Year,Month,Day,Hour,Minute,Value (Times are PST for barometer in hPa)
2019,09,27,00,00,965.59
2019,09,27,00,01,965.53
2019,09,27,00,02,965.56
2019,09,27,00,03,965.56
2019,09,27,00,04,965.56
2019,09,27,00,05,965.56
2019,09,27,00,06,965.56
2019,09,27,00,07,965.56
2019,09,27,00,08,965.56
2019,09,27,00,09,965.57
2019,09,27,00,10,965.60
2019,09,27,00,11,965.60
2019,09,27,00,12,965.63
2019,09,27,00,13,965.62
2019,09,27,00,14,965.59
2019,09,27,00,15,965.56
2019,09,27,00,16,965.56
2019,09,27,00,17,965.57
2019,09,27,00,18,965.62
2019,09,27,00,19,965.59
2019,09,27,00,20,965.57
2019,09,27,00,21,965.60
2019,09,27,00,22,965.61
2019,09,27,00,23,965.63
2019,09,27,00,24,965.61
2019,09,27,00,25,965.53
2019,09,27,00,26,965.56
2019,09,27,00,27,965.56
2019,09,27,00,28,965.56
2019,09,27,00,29,965.57
2019,09,27,00,30,965.61
2019,09,27,00,31,965.54
2019,09,27,00,32,965.62
2019,09,27,00,33,965.61
2019,09,27,00,34,965.63
2019,09,27,00,35,965.64
2019,09,27,00,36,965.68
2019,09,27,00,37,965.61
2019,09,27,00,38,965.62
2019,09,27,00,39,965.62
2019,09,27,00,40,965.71
2019,09,27,00,41,965.73
2019,09,27,00,42,965.73
2019,09,27,00,43,965.73
2019,09,27,00,44,965.73
2019,09,27,00,45,965.73
2019,09,27,00,46,965.73
2019,09,27,00,47,965.72
2019,09,27,00,48,965.71
2019,09,27,00,49,965.73
2019,09,27,00,50,965.74
2019,09,27,00,51,965.75
2019,09,27,00,52,965.74
2019,09,27,00,53,965.77
2019,09,27,00,54,965.80
2019,09,27,00,55,965.80
2019,09,27,00,56,965.77
2019,09,27,00,57,965.69
2019,09,27,00,58,965.67
2019,09,27,00,59,965.70
2019,09,27,01,00,965.70
2019,09,27,01,01,965.69
2019,09,27,01,02,965.68
2019,09,27,01,03,965.72
2019,09,27,01,04,965.72
2019,09,27,01,05,965.74
2019,09,27,01,06,965.72
2019,09,27,01,07,965.75
2019,09,27,01,08,965.74
2019,09,27,01,09,965.75
2019,09,27,01,10,965.73
2019,09,27,01,11,965.72
2019,09,27,01,12,965.71
2019,09,27,01,13,965.71
2019,09,27,01,14,965.67
2019,09,27,01,15,965.69
2019,09,27,01,16,965.65
2019,09,27,01,17,965.63
2019,09,27,01,18,965.63
2019,09,27,01,19,965.63
2019,09,27,01,20,965.60
2019,09,27,01,21,965.55
2019,09,27,01,22,965.60
2019,09,27,01,23,965.60
2019,09,27,01,24,965.60
2019,09,27,01,25,965.62
2019,09,27,01,26,965.66
2019,09,27,01,27,965.66
2019,09,27,01,28,965.66
2019,09,27,01,29,965.62
2019,09,27,01,30,965.56
2019,09,27,01,31,965.56
2019,09,27,01,32,965.56
2019,09,27,01,33,965.56
2019,09,27,01,34,965.56
2019,09,27,01,35,965.56
2019,09,27,01,36,965.56
2019,09,27,01,37,965.56
2019,09,27,01,38,965.56
2019,09,27,01,39,965.56
2019,09,27,01,40,965.56
2019,09,27,01,41,965.58
2019,09,27,01,42,965.60
2019,09,27,01,43,965.60
2019,09,27,01,44,965.61
2019,09,27,01,45,965.60
2019,09,27,01,46,965.58
2019,09,27,01,47,965.62
2019,09,27,01,48,965.64
2019,09,27,01,49,965.70
2019,09,27,01,50,965.70
2019,09,27,01,51,965.68
2019,09,27,01,52,965.66
2019,09,27,01,53,965.65
2019,09,27,01,54,965.64
2019,09,27,01,55,965.69
2019,09,27,01,56,965.72
2019,09,27,01,57,965.70
2019,09,27,01,58,965.68
2019,09,27,01,59,965.66
2019,09,27,02,00,965.66
2019,09,27,02,01,965.66
2019,09,27,02,02,965.66
2019,09,27,02,03,965.66
2019,09,27,02,04,965.66
2019,09,27,02,05,965.68
2019,09,27,02,06,965.68
2019,09,27,02,07,965.66
2019,09,27,02,08,965.69
2019,09,27,02,09,965.74
2019,09,27,02,10,965.71
2019,09,27,02,11,965.63
2019,09,27,02,12,965.67
2019,09,27,02,13,965.73
2019,09,27,02,14,965.72
2019,09,27,02,15,965.70
2019,09,27,02,16,965.68
2019,09,27,02,17,965.66
2019,09,27,02,18,965.66
2019,09,27,02,19,965.68
2019,09,27,02,20,965.67
2019,09,27,02,21,965.64
2019,09,27,02,22,965.66
2019,09,27,02,23,965.65
2019,09,27,02,24,965.63
2019,09,27,02,25,965.62
2019,09,27,02,26,965.60
2019,09,27,02,27,965.54
2019,09,27,02,28,965.48
2019,09,27,02,29,965.49
2019,09,27,02,30,965.55
2019,09,27,02,31,965.49
2019,09,27,02,32,965.47
2019,09,27,02,33,965.48
2019,09,27,02,34,965.45
2019,09,27,02,35,965.45
2019,09,27,02,36,965.44
2019,09,27,02,37,965.44
2019,09,27,02,38,965.45
2019,09,27,02,39,965.44
2019,09,27,02,40,965.43
2019,09,27,02,41,965.45
2019,09,27,02,42,965.48
2019,09,27,02,43,965.46
2019,09,27,02,44,965.43
2019,09,27,02,45,965.43
2019,09,27,02,46,965.45
2019,09,27,02,47,965.41
2019,09,27,02,48,965.36
2019,09,27,02,49,965.37
2019,09,27,02,50,965.37
2019,09,27,02,51,965.36
2019,09,27,02,52,965.36
2019,09,27,02,53,965.36
2019,09,27,02,54,965.32
2019,09,27,02,55,965.33
2019,09,27,02,56,965.34
2019,09,27,02,57,965.29
2019,09,27,02,58,965.26
2019,09,27,02,59,965.26
2019,09,27,03,00,965.24
2019,09,27,03,01,965.22
2019,09,27,03,02,965.24
2019,09,27,03,03,965.26
2019,09,27,03,04,965.28
2019,09,27,03,05,965.27
2019,09,27,03,06,965.28
2019,09,27,03,07,965.27
2019,09,27,03,08,965.24
2019,09,27,03,09,965.24
2019,09,27,03,10,965.22
2019,09,27,03,11,965.21
2019,09,27,03,12,965.19
2019,09,27,03,13,965.16
2019,09,27,03,14,965.16
2019,09,27,03,15,965.16
2019,09,27,03,16,965.16
2019,09,27,03,17,965.16
2019,09,27,03,18,965.16
2019,09,27,03,19,965.16
2019,09,27,03,20,965.20
2019,09,27,03,21,965.20
2019,09,27,03,22,965.12
2019,09,27,03,23,965.11
2019,09,27,03,24,965.12
2019,09,27,03,25,965.15
2019,09,27,03,26,965.16
2019,09,27,03,27,965.18
2019,09,27,03,28,965.21
2019,09,27,03,29,965.18
2019,09,27,03,30,965.13
2019,09,27,03,31,965.15
2019,09,27,03,32,965.14
2019,09,27,03,33,965.15
2019,09,27,03,34,965.12
2019,09,27,03,35,965.09
2019,09,27,03,36,965.04
2019,09,27,03,37,965.04
2019,09,27,03,38,965.10
2019,09,27,03,39,965.15
2019,09,27,03,40,965.13
2019,09,27,03,41,965.12
2019,09,27,03,42,965.15
2019,09,27,03,43,965.09
2019,09,27,03,44,965.10
2019,09,27,03,45,965.10
2019,09,27,03,46,965.11
2019,09,27,03,47,965.07
2019,09,27,03,48,965.08
2019,09,27,03,49,965.06
2019,09,27,03,50,965.03
2019,09,27,03,51,965.00
2019,09,27,03,52,965.01
2019,09,27,03,53,965.07
2019,09,27,03,54,965.09
2019,09,27,03,55,965.09
2019,09,27,03,56,965.09
2019,09,27,03,57,965.11
2019,09,27,03,58,965.10
2019,09,27,03,59,965.06
2019,09,27,04,00,965.08
2019,09,27,04,01,965.04
2019,09,27,04,02,965.00
2019,09,27,04,03,965.03
2019,09,27,04,04,965.05
2019,09,27,04,08,965.08
2019,09,27,04,09,965.10
2019,09,27,04,10,965.02
2019,09,27,04,11,965.04
2019,09,27,04,12,965.11
2019,09,27,04,13,965.08
2019,09,27,04,14,965.05
2019,09,27,04,15,965.07
2019,09,27,04,16,965.16
2019,09,27,04,17,965.16
2019,09,27,04,18,965.14
2019,09,27,04,19,965.08
2019,09,27,04,20,965.01
2019,09,27,04,21,964.97
2019,09,27,04,22,965.06
2019,09,27,04,23,965.00
2019,09,27,04,24,965.00
2019,09,27,04,25,964.95
2019,09,27,04,26,964.97
2019,09,27,04,27,965.02
2019,09,27,04,28,965.01
2019,09,27,04,29,964.98
2019,09,27,04,30,964.97
2019,09,27,04,31,965.02
2019,09,27,04,32,965.02
2019,09,27,04,33,965.02
2019,09,27,04,34,965.01
2019,09,27,04,35,964.97
2019,09,27,04,36,964.91
2019,09,27,04,37,964.90
2019,09,27,04,38,964.96
2019,09,27,04,39,964.98
2019,09,27,04,40,964.95
2019,09,27,04,41,964.93
2019,09,27,04,42,964.87
2019,09,27,04,43,964.85
2019,09,27,04,44,964.85
2019,09,27,04,45,964.84
2019,09,27,04,46,964.79
2019,09,27,04,47,964.70
2019,09,27,04,48,964.68
2019,09,27,04,49,964.70
2019,09,27,04,50,964.72
2019,09,27,04,51,964.68
2019,09,27,04,52,964.74
2019,09,27,04,53,964.70
2019,09,27,04,54,964.70
2019,09,27,04,55,964.70
2019,09,27,04,56,964.57
2019,09,27,04,57,964.56
2019,09,27,04,58,964.61
2019,09,27,04,59,964.68
2019,09,27,05,00,964.66
2019,09,27,05,01,964.59
2019,09,27,05,02,964.57
2019,09,27,05,03,964.60
2019,09,27,05,04,964.58
2019,09,27,05,05,964.56
2019,09,27,05,06,964.51
2019,09,27,05,07,964.53
2019,09,27,05,08,964.52
2019,09,27,05,09,964.51
2019,09,27,05,10,964.50
2019,09,27,05,11,964.42
2019,09,27,05,12,964.48
2019,09,27,05,13,964.57
2019,09,27,05,14,964.59
2019,09,27,05,15,964.53
2019,09,27,05,16,964.48
2019,09,27,05,17,964.49
2019,09,27,05,18,964.51
2019,09,27,05,19,964.47
2019,09,27,05,20,964.42
2019,09,27,05,21,964.41
2019,09,27,05,22,964.39
2019,09,27,05,23,964.40
2019,09,27,05,24,964.38
2019,09,27,05,25,964.41
2019,09,27,05,26,964.44
2019,09,27,05,27,964.44
2019,09,27,05,28,964.43
2019,09,27,05,29,964.41
2019,09,27,05,30,964.41
2019,09,27,05,31,964.41
2019,09,27,05,32,964.42
2019,09,27,05,33,964.43
2019,09,27,05,34,964.40
2019,09,27,05,35,964.38
2019,09,27,05,36,964.41
2019,09,27,05,37,964.44
2019,09,27,05,38,964.44
2019,09,27,05,39,964.41
2019,09,27,05,40,964.43
2019,09,27,05,41,964.50
2019,09,27,05,42,964.49
2019,09,27,05,43,964.53
2019,09,27,05,44,964.49
2019,09,27,05,45,964.42
2019,09,27,05,46,964.43
2019,09,27,05,47,964.42
2019,09,27,05,48,964.41
2019,09,27,05,49,964.39
2019,09,27,05,50,964.40
2019,09,27,05,51,964.38
2019,09,27,05,52,964.33
2019,09,27,05,53,964.34
2019,09,27,05,54,964.40
2019,09,27,05,55,964.36
2019,09,27,05,56,964.36
2019,09,27,05,57,964.33
2019,09,27,05,58,964.34
2019,09,27,05,59,964.42
2019,09,27,06,00,964.40
2019,09,27,06,01,964.34
2019,09,27,06,02,964.36
2019,09,27,06,03,964.34
2019,09,27,06,04,964.33
2019,09,27,06,05,964.34
2019,09,27,06,06,964.34
2019,09,27,06,07,964.30
2019,09,27,06,08,964.29
2019,09,27,06,09,964.33
2019,09,27,06,10,964.31
2019,09,27,06,11,964.30
2019,09,27,06,12,964.33
2019,09,27,06,13,964.29
2019,09,27,06,14,964.25
2019,09,27,06,15,964.18
2019,09,27,06,16,964.18
2019,09,27,06,17,964.19
2019,09,27,06,18,964.15
2019,09,27,06,19,964.14
2019,09,27,06,20,964.16
2019,09,27,06,21,964.16
2019,09,27,06,22,964.14
2019,09,27,06,23,964.10
2019,09,27,06,24,964.12
2019,09,27,06,25,964.12
2019,09,27,06,26,964.05
2019,09,27,06,27,964.08
2019,09,27,06,28,964.11
2019,09,27,06,29,964.07
2019,09,27,06,30,964.06
2019,09,27,06,31,964.05
2019,09,27,06,32,964.04
2019,09,27,06,33,964.06
2019,09,27,06,34,964.07
2019,09,27,06,35,964.09
2019,09,27,06,36,964.14
2019,09,27,06,37,964.17
2019,09,27,06,38,964.17
2019,09,27,06,39,964.23
2019,09,27,06,40,964.25
2019,09,27,06,41,964.22
2019,09,27,06,42,964.19
2019,09,27,06,43,964.14
2019,09,27,06,44,964.09
2019,09,27,06,45,964.05
2019,09,27,06,46,964.04
2019,09,27,06,47,964.02
2019,09,27,06,48,964.02
2019,09,27,06,49,964.00
2019,09,27,06,50,963.97
2019,09,27,06,51,964.02
2019,09,27,06,52,964.02
2019,09,27,06,53,963.94
2019,09,27,06,54,963.92
2019,09,27,06,55,963.94
2019,09,27,06,56,964.01
2019,09,27,06,57,964.00
2019,09,27,06,58,963.97
2019,09,27,06,59,963.99
2019,09,27,07,00,964.00
2019,09,27,07,01,963.98
2019,09,27,07,02,963.97
2019,09,27,07,03,963.95
2019,09,27,07,04,963.94
2019,09,27,07,05,964.00
2019,09,27,07,06,963.99
2019,09,27,07,07,963.95
2019,09,27,07,08,964.03
2019,09,27,07,09,964.00
2019,09,27,07,10,964.02
2019,09,27,07,11,963.99
2019,09,27,07,12,963.99
2019,09,27,07,13,964.00
2019,09,27,07,14,964.03
2019,09,27,07,15,963.97
2019,09,27,07,16,963.94
2019,09,27,07,17,963.98
2019,09,27,07,18,964.00
2019,09,27,07,19,963.98
2019,09,27,07,20,964.02
2019,09,27,07,21,964.06
2019,09,27,07,22,964.05
2019,09,27,07,23,964.01
2019,09,27,07,24,964.03
2019,09,27,07,25,964.04
2019,09,27,07,26,964.04
2019,09,27,07,27,964.04
2019,09,27,07,28,964.04
2019,09,27,07,29,964.04
2019,09,27,07,30,963.99
2019,09,27,07,31,963.95
2019,09,27,07,32,963.89
2019,09,27,07,33,963.87
2019,09,27,07,34,963.82
2019,09,27,07,35,963.90
2019,09,27,07,36,963.91
2019,09,27,07,37,963.90
2019,09,27,07,38,963.88
2019,09,27,07,39,963.89
2019,09,27,07,40,963.85
2019,09,27,07,41,963.88
2019,09,27,07,42,963.88
2019,09,27,07,43,963.92
2019,09,27,07,44,963.96
2019,09,27,07,45,963.97
2019,09,27,07,46,963.99
2019,09,27,07,47,963.98
2019,09,27,07,48,963.97
2019,09,27,07,49,963.99
2019,09,27,07,50,964.00
2019,09,27,07,51,963.93
2019,09,27,07,52,963.95
2019,09,27,07,53,963.99
2019,09,27,07,54,963.98
2019,09,27,07,55,963.97
2019,09,27,07,56,963.99
2019,09,27,07,57,963.98
2019,09,27,07,58,963.99
2019,09,27,07,59,963.98
2019,09,27,08,00,963.92
2019,09,27,08,01,963.93
2019,09,27,08,02,963.89
2019,09,27,08,03,963.89
2019,09,27,08,04,963.90
2019,09,27,08,05,963.82
2019,09,27,08,06,963.82
2019,09,27,08,07,963.83
2019,09,27,08,08,963.81
2019,09,27,08,09,963.75
2019,09,27,08,10,963.73
2019,09,27,08,11,963.79
2019,09,27,08,12,963.78
2019,09,27,08,13,963.74
2019,09,27,08,14,963.73
2019,09,27,08,15,963.71
2019,09,27,08,16,963.72
2019,09,27,08,17,963.73
2019,09,27,08,18,963.71
2019,09,27,08,19,963.72
2019,09,27,08,20,963.76
2019,09,27,08,21,963.77
2019,09,27,08,22,963.77
2019,09,27,08,23,963.74
2019,09,27,08,24,963.73
2019,09,27,08,25,963.68
2019,09,27,08,26,963.64
2019,09,27,08,27,963.63
2019,09,27,08,28,963.60
2019,09,27,08,29,963.54
2019,09,27,08,30,963.59
2019,09,27,08,31,963.51
2019,09,27,08,32,963.55
2019,09,27,08,33,963.56
2019,09,27,08,34,963.56
2019,09,27,08,35,963.59
2019,09,27,08,36,963.57
2019,09,27,08,37,963.56
2019,09,27,08,38,963.56
2019,09,27,08,39,963.51
2019,09,27,08,40,963.59
2019,09,27,08,41,963.57
2019,09,27,08,42,963.53
2019,09,27,08,43,963.56
2019,09,27,08,44,963.59
2019,09,27,08,45,963.57
2019,09,27,08,46,963.53
2019,09,27,08,47,963.44
2019,09,27,08,48,963.49
2019,09,27,08,49,963.52
2019,09,27,08,50,963.47
2019,09,27,08,51,963.46
2019,09,27,08,52,963.43
2019,09,27,08,53,963.46
2019,09,27,08,54,963.43
2019,09,27,08,55,963.36
2019,09,27,08,56,963.45
2019,09,27,08,57,963.46
2019,09,27,08,58,963.40
2019,09,27,08,59,963.43
2019,09,27,09,00,963.46
2019,09,27,09,01,963.43
2019,09,27,09,02,963.43
2019,09,27,09,03,963.46
2019,09,27,09,04,963.46
2019,09,27,09,05,963.40
2019,09,27,09,06,963.36
2019,09,27,09,07,963.39
2019,09,27,09,08,963.43
2019,09,27,09,09,963.43
2019,09,27,09,10,963.43
2019,09,27,09,11,963.39
2019,09,27,09,12,963.45
2019,09,27,09,13,963.39
2019,09,27,09,14,963.46
2019,09,27,09,15,963.46
2019,09,27,09,16,963.46
2019,09,27,09,17,963.50
2019,09,27,09,18,963.44
2019,09,27,09,19,963.43
2019,09,27,09,20,963.46
2019,09,27,09,21,963.46
2019,09,27,09,22,963.53
2019,09,27,09,23,963.46
2019,09,27,09,24,963.56
2019,09,27,09,25,963.50
2019,09,27,09,26,963.50
2019,09,27,09,27,963.50
2019,09,27,09,28,963.56
2019,09,27,09,29,963.53
2019,09,27,09,30,963.60
2019,09,27,09,31,963.63
2019,09,27,09,32,963.70
2019,09,27,09,33,963.67
2019,09,27,09,34,963.73
2019,09,27,09,35,963.73
2019,09,27,09,36,963.70
2019,09,27,09,37,963.70
2019,09,27,09,38,963.73
2019,09,27,09,39,963.73
2019,09,27,09,40,963.70
2019,09,27,09,41,963.77
2019,09,27,09,42,963.80
2019,09,27,09,43,963.80
2019,09,27,09,44,963.80
2019,09,27,09,45,963.80
2019,09,27,09,46,963.80
2019,09,27,09,47,963.80
2019,09,27,09,48,963.80
2019,09,27,09,49,963.87
2019,09,27,09,50,963.80
2019,09,27,09,51,963.77
2019,09,27,09,52,963.77
2019,09,27,09,53,963.77
2019,09,27,09,54,963.77
2019,09,27,09,55,963.77
2019,09,27,09,56,963.80
2019,09,27,09,57,963.73
2019,09,27,09,58,963.83
2019,09,27,09,59,963.83
2019,09,27,10,00,963.83
2019,09,27,10,01,963.83
2019,09,27,10,02,963.83
2019,09,27,10,03,963.78
2019,09,27,10,04,963.83
2019,09,27,10,05,963.83
2019,09,27,10,06,963.83
2019,09,27,10,07,963.83
2019,09,27,10,08,963.83
2019,09,27,10,09,963.87
2019,09,27,10,10,963.90
2019,09,27,10,11,963.90
2019,09,27,10,12,963.86
2019,09,27,10,13,963.80
2019,09,27,10,14,963.81
2019,09,27,10,15,963.87
2019,09,27,10,16,963.90
2019,09,27,10,17,963.90
2019,09,27,10,18,963.90
2019,09,27,10,19,973.39
2019,09,27,10,20,1058.82
2019,09,27,10,21,1058.82
2019,09,27,10,22,1045.26
2019,09,27,10,23,963.84
2019,09,27,10,24,963.69
2019,09,27,10,25,963.87
2019,09,27,10,26,963.87
2019,09,27,10,27,963.87
2019,09,27,10,28,963.87
2019,09,27,10,29,963.87
2019,09,27,10,30,963.87
2019,09,27,10,31,963.87
2019,09,27,10,32,963.86
2019,09,27,10,33,963.80
2019,09,27,10,34,963.84
2019,09,27,10,35,963.87
2019,09,27,10,36,963.84
2019,09,27,10,37,963.87
2019,09,27,10,38,963.87
2019,09,27,10,39,963.86
2019,09,27,10,40,963.80
2019,09,27,10,41,963.80
2019,09,27,10,42,963.80
2019,09,27,10,43,963.80
2019,09,27,10,44,963.80
2019,09,27,10,45,963.80
2019,09,27,10,46,963.79
2019,09,27,10,47,963.76
2019,09,27,10,48,963.72
2019,09,27,10,49,963.67
2019,09,27,10,50,963.70
2019,09,27,10,51,963.70
2019,09,27,10,52,963.70
2019,09,27,10,53,963.70
2019,09,27,10,54,963.70
2019,09,27,10,55,963.70
2019,09,27,10,56,963.70
2019,09,27,10,57,963.70
2019,09,27,10,58,963.70
2019,09,27,10,59,963.70
2019,09,27,11,00,963.71
2019,09,27,11,01,963.72
2019,09,27,11,02,963.67
2019,09,27,11,03,963.67
2019,09,27,11,04,963.67
2019,09,27,11,05,963.68
2019,09,27,11,06,963.68
2019,09,27,11,07,963.60
2019,09,27,11,08,963.60
2019,09,27,11,09,963.60
2019,09,27,11,10,963.59
2019,09,27,11,11,963.53
2019,09,27,11,12,963.46
2019,09,27,11,13,963.26
2019,09,27,11,14,963.26
2019,09,27,11,15,963.26
2019,09,27,11,16,963.26
2019,09,27,11,17,963.26
2019,09,27,11,18,963.26
2019,09,27,11,19,963.33
2019,09,27,11,20,963.55
2019,09,27,11,21,963.48
2019,09,27,11,22,963.41
2019,09,27,11,23,963.33
2019,09,27,11,24,963.33
2019,09,27,11,25,963.34
2019,09,27,11,26,963.36
2019,09,27,11,27,963.36
2019,09,27,11,28,963.35
2019,09,27,11,29,963.33
2019,09,27,11,30,963.33
2019,09,27,11,31,963.33
2019,09,27,11,32,963.33
2019,09,27,11,33,963.33
2019,09,27,11,34,963.33
2019,09,27,11,35,963.33
2019,09,27,11,36,963.33
2019,09,27,11,37,963.33
2019,09,27,11,38,963.33
2019,09,27,11,39,963.33
2019,09,27,11,40,963.33
2019,09,27,11,41,963.32
2019,09,27,11,42,963.25
2019,09,27,11,43,963.17
2019,09,27,11,44,963.19
2019,09,27,11,45,963.19
2019,09,27,11,46,963.18
2019,09,27,11,47,963.14
2019,09,27,11,48,963.09
2019,09,27,11,49,963.09
2019,09,27,11,50,963.09
2019,09,27,11,51,963.09
2019,09,27,11,52,963.09
2019,09,27,11,53,963.08
2019,09,27,11,54,963.06
2019,09,27,11,55,963.06
2019,09,27,11,56,963.06
2019,09,27,11,57,963.06
2019,09,27,11,58,963.06
2019,09,27,11,59,963.06
2019,09,27,12,00,963.06
2019,09,27,12,01,963.06
2019,09,27,12,02,963.06
2019,09,27,12,03,963.06
2019,09,27,12,04,964.98
2019,09,27,12,05,968.81
2019,09,27,12,06,968.81
2019,09,27,12,07,968.81
2019,09,27,12,08,966.94
2019,09,27,12,09,962.93
2019,09,27,12,10,962.96
2019,09,27,12,11,962.99
2019,09,27,12,12,962.99
2019,09,27,12,13,962.99
2019,09,27,12,14,962.94
2019,09,27,12,15,962.85
2019,09,27,12,16,962.82
2019,09,27,12,17,962.79
2019,09,27,12,18,962.78
2019,09,27,12,19,962.72
2019,09,27,12,20,962.72
2019,09,27,12,21,962.72
2019,09,27,12,22,962.72
2019,09,27,12,23,962.69
2019,09,27,12,24,962.62
2019,09,27,12,25,962.61
2019,09,27,12,26,962.65
2019,09,27,12,27,962.65
2019,09,27,12,28,962.65
2019,09,27,12,29,962.65
2019,09,27,12,30,962.65
2019,09,27,12,31,962.65
2019,09,27,12,32,962.65
2019,09,27,12,33,962.65
2019,09,27,12,34,962.65
2019,09,27,12,35,962.56
2019,09,27,12,36,962.45
2019,09,27,12,37,962.40
2019,09,27,12,38,962.36
2019,09,27,12,39,962.38
2019,09,27,12,40,962.38
2019,09,27,12,41,962.38
2019,09,27,12,42,962.38
2019,09,27,12,43,962.38
2019,09,27,12,44,962.38
2019,09,27,12,45,962.38
2019,09,27,12,46,962.38
2019,09,27,12,47,962.38
2019,09,27,12,48,962.38
2019,09,27,12,49,962.38
2019,09,27,12,50,962.38
2019,09,27,12,51,962.38
2019,09,27,12,52,962.38
2019,09,27,12,53,962.38
2019,09,27,12,54,962.38
2019,09,27,12,55,962.38
2019,09,27,12,56,962.38
2019,09,27,12,57,962.38
2019,09,27,12,58,962.38
2019,09,27,12,59,962.38
2019,09,27,13,00,962.38
2019,09,27,13,01,962.23
2019,09,27,13,02,962.04
2019,09,27,13,03,962.04
2019,09,27,13,04,962.04
2019,09,27,13,05,962.04
2019,09,27,13,06,962.04
2019,09,27,13,07,962.04
2019,09,27,13,08,962.04
2019,09,27,13,09,962.04
2019,09,27,13,10,962.04
2019,09,27,13,11,962.04
2019,09,27,13,12,961.86
2019,09,27,13,13,961.71
2019,09,27,13,14,961.73
2019,09,27,13,15,961.73
2019,09,27,13,16,961.73
2019,09,27,13,17,961.73
2019,09,27,13,18,961.73
2019,09,27,13,19,961.73
2019,09,27,13,20,961.73
2019,09,27,13,21,961.62
2019,09,27,13,22,961.53
2019,09,27,13,23,961.53
2019,09,27,13,24,961.53
2019,09,27,13,25,961.53
2019,09,27,13,26,961.53
2019,09,27,13,27,961.53
2019,09,27,13,28,961.53
2019,09,27,13,29,961.53
2019,09,27,13,30,961.38
2019,09,27,13,31,961.20
2019,09,27,13,32,961.16
2019,09,27,13,33,961.16
2019,09,27,13,34,961.16
2019,09,27,13,35,961.16
2019,09,27,13,36,961.16
2019,09,27,13,37,961.16
2019,09,27,13,38,961.16
2019,09,27,13,39,961.16
2019,09,27,13,40,961.16
2019,09,27,13,41,961.16
2019,09,27,13,42,961.16
2019,09,27,13,43,961.16
2019,09,27,13,44,961.16
2019,09,27,13,45,961.18
2019,09,27,13,46,961.19
2019,09,27,13,47,961.19
2019,09,27,13,48,961.19
2019,09,27,13,49,961.19
2019,09,27,13,50,961.19
2019,09,27,13,51,961.21
2019,09,27,13,52,961.32
2019,09,27,13,53,961.36
2019,09,27,13,54,961.36
2019,09,27,13,55,961.36
2019,09,27,13,56,961.36
2019,09,27,13,57,961.36
2019,09,27,13,58,961.36
2019,09,27,13,59,961.36
2019,09,27,14,00,961.36
2019,09,27,14,01,961.36
2019,09,27,14,02,961.36
2019,09,27,14,03,961.36
2019,09,27,14,04,961.36
2019,09,27,14,05,961.36
2019,09,27,14,06,961.36
2019,09,27,14,07,961.36
2019,09,27,14,08,961.36
2019,09,27,14,09,961.36
2019,09,27,14,10,961.36
2019,09,27,14,11,961.36
2019,09,27,14,12,961.36
2019,09,27,14,13,961.36
2019,09,27,14,14,961.36
2019,09,27,14,15,961.36
2019,09,27,14,16,961.24
2019,09,27,14,17,961.15
2019,09,27,14,18,961.13
2019,09,27,14,19,961.13
2019,09,27,14,20,961.13
2019,09,27,14,21,961.13
2019,09,27,14,22,961.13
2019,09,27,14,23,961.13
2019,09,27,14,24,961.13
2019,09,27,14,25,961.13
2019,09,27,14,26,961.13
2019,09,27,14,27,961.13
2019,09,27,14,28,961.13
2019,09,27,14,29,961.13
2019,09,27,14,30,961.13
2019,09,27,14,31,961.13
2019,09,27,14,32,961.20
2019,09,27,14,33,961.20
2019,09,27,14,34,961.28
2019,09,27,14,35,961.33
2019,09,27,14,36,961.26
2019,09,27,14,37,961.23
2019,09,27,14,38,961.23
2019,09,27,14,39,961.23
2019,09,27,14,40,961.23
2019,09,27,14,41,1020.68
2019,09,27,14,42,1040.50
2019,09,27,14,43,1040.65
2019,09,27,14,44,1040.71
2019,09,27,14,45,1040.71
2019,09,27,14,46,1040.71
2019,09,27,14,47,1040.71
2019,09,27,14,48,982.46
2019,09,27,14,49,961.90
2019,09,27,14,50,961.90
2019,09,27,14,51,961.90
2019,09,27,14,52,961.90
2019,09,27,14,53,961.90
2019,09,27,14,54,961.90
2019,09,27,14,55,961.90
2019,09,27,14,56,961.90
2019,09,27,14,57,961.90
2019,09,27,14,58,961.90
2019,09,27,14,59,961.90
2019,09,27,15,00,961.90
2019,09,27,15,01,961.90
2019,09,27,15,02,961.93
2019,09,27,15,03,961.96
2019,09,27,15,04,962.00
2019,09,27,15,05,962.03
2019,09,27,15,06,962.04
2019,09,27,15,07,953.22
2019,09,27,15,08,950.54
2019,09,27,15,09,950.56
2019,09,27,15,10,950.56
2019,09,27,15,11,950.56
2019,09,27,15,12,950.56
2019,09,27,15,13,959.20
2019,09,27,15,14,961.90
2019,09,27,15,15,961.90
2019,09,27,15,16,961.90
2019,09,27,15,17,961.90
2019,09,27,15,18,961.90
2019,09,27,15,19,962.18
2019,09,27,15,20,962.24
2019,09,27,15,21,962.24
2019,09,27,15,22,962.24
2019,09,27,15,23,962.24
2019,09,27,15,24,962.24
2019,09,27,15,25,962.24
2019,09,27,15,26,962.24
2019,09,27,15,27,962.24
2019,09,27,15,28,962.24
2019,09,27,15,29,962.24
2019,09,27,15,30,962.24
2019,09,27,15,31,962.24
2019,09,27,15,32,962.24
2019,09,27,15,33,962.24
2019,09,27,15,34,962.24
2019,09,27,15,35,962.24
2019,09,27,15,36,962.27
2019,09,27,15,37,962.31
2019,09,27,15,38,962.31
2019,09,27,15,39,962.37
2019,09,27,15,40,962.44
2019,09,27,15,41,962.45
2019,09,27,15,42,962.45
2019,09,27,15,43,962.30
2019,09,27,15,44,962.28
2019,09,27,15,45,962.13
2019,09,27,15,46,962.11
2019,09,27,15,47,962.07
2019,09,27,15,48,962.07
2019,09,27,15,49,962.07
2019,09,27,15,50,962.07
2019,09,27,15,51,962.07
2019,09,27,15,52,962.07
2019,09,27,15,53,962.07
2019,09,27,15,54,962.07
2019,09,27,15,55,962.07
2019,09,27,15,56,962.07
2019,09,27,15,57,962.07
2019,09,27,15,58,962.07
2019,09,27,15,59,962.07
2019,09,27,16,00,962.07
2019,09,27,16,01,962.07
2019,09,27,16,02,962.07
2019,09,27,16,03,962.07
2019,09,27,16,04,962.07
2019,09,27,16,05,962.07
2019,09,27,16,06,962.07
2019,09,27,16,07,962.07
2019,09,27,16,08,962.07
2019,09,27,16,09,962.07
2019,09,27,16,10,962.07
2019,09,27,16,11,962.07
2019,09,27,16,12,962.07
2019,09,27,16,13,962.07
2019,09,27,16,14,962.07
2019,09,27,16,15,962.07
2019,09,27,16,16,962.07
2019,09,27,16,17,962.07
2019,09,27,16,18,962.07
2019,09,27,16,19,962.07
2019,09,27,16,20,962.37
2019,09,27,16,21,962.38
2019,09,27,16,22,962.38
2019,09,27,16,23,962.38
2019,09,27,16,24,962.38
2019,09,27,16,25,962.38
2019,09,27,16,26,962.38
2019,09,27,16,27,962.38
2019,09,27,16,28,962.38
2019,09,27,16,29,962.38
2019,09,27,16,30,962.38
2019,09,27,16,31,962.38
2019,09,27,16,32,962.38
2019,09,27,16,33,962.38
2019,09,27,16,34,962.38
2019,09,27,16,35,962.38
2019,09,27,16,36,962.38
2019,09,27,16,37,962.36
2019,09,27,16,38,962.04